User: anonymous   Login
Location: Unspecified
(0.0000°N, 0.0000°E)
Time: 22:51:42
(UTC+00:00)
Language:

HODOYOSHI 1 - Orbit

View from above orbital plane
View from above orbital plane
View from above satellite
View from above satellite

Ground track
Ground track

The orbit data is extracted from the following two-line orbital elements,

1 40299U 14070B   17113.83592837 +.00002193 +00000-0 +98532-4 0  9990
2 40299 097.4038 197.4009 0011540 284.1122 215.4942 15.22151308136676
Epoch (UTC): 23 April 2017 20:03:44
Eccentricity: 0.0011540
inclination: 97.4038°
perigee height: 491 km
apogee height: 507 km
right ascension of ascending node: 197.4009°
argument of perigee: 284.1122°
revolutions per day: 15.22151308
mean anomaly at epoch: 215.4942°
orbit number at epoch: 13667

The dashed part of the orbit path shows where the satellite is in the earth's shadow,  

DLR